STARLINK-5125, 53994

Orbit data source: Space-Track

STARLINK-5125, 53994 is a payload satellite owned by SpaceX/Seattle (US) in LEO that was launched on Wed, 05 Oct 2022 UTC via an FALCON 9 launch vehicle from the Air Force Western Test Range (AFWTR). Payload-class satellites include a variety of spacecraft equipped with specific instruments for various scientific and technological missions. These include communications satellites like Starlink; space stations such as the ISS; scientific satellites like the Hubble; Earth observation satellites from companies like Planet Labs, Umbra, and HawkEye 360; GPS; miniature CubeSats for education and research; and military/defense satellites.

Loading next visibility...
Identifier
53994, 2022-125AG
Orbit
LEO
Country
Flag of USUS
Related business
Manufacturer
SpaceX/Seattle
Mission
Operational Commercial Communications
Bus & Motor
STARLINK, Unknown motor
Mass
305 kg wet, ~290 kg dry
Launch date (UTC)
2022-10-05 (4 years ago)
Launch vehicle
FALCON 9
Launch site
Air Force Western Test Range (AFWTR)
Object type
Payload
Rocket body
Debris
Shape & HBR
Box + 1 Pan, 10.1 m
Radar Cross Section
13.562 m², Large (>1 m²)

Expand to show TLE details & history
Last TLE update: 2 days ago

TLE from 2 days ago
0 STARLINK-5125
1 53994U 22125AG  26171.22529875  .00001165  00000-0  91216-4 0  9995
2 53994  53.1614 113.5846 0001032 123.1809 236.9282 15.08851991204948
Epoch: 2026-06-20T05:24Z
TLE epoch observation values (Epoch: 2026-06-20T05:24:25.812Z)
Latitude
0.00004°
Longitude
124.0341°
Altitude
540.988 km
Speed
7.593 km/s
True Right ascension
07h 34m 20s
True Declination
0° 00' 00"
Sunlit
Object was in daylight at epoch
Visualization orbit readout
Latitude
Unknown
Longitude
Unknown
Altitude
Unknown
Speed
Unknown
Apparent Right ascension
Unknown
Apparent Declination
Unknown
Sunlit
N/A
Visualization observer readout
Local Sidereal Time
21:27:08
Azimuth
Unknown
Elevation
Unknown
Doppler factor
Unknown
Orbital elements
Apogee altitude
540.675 km
Perigee altitude
539.247 km
Semi-major axis
6,918.098 km
Eccentricity
0.0001
Inclination
53.1614°
RAAN
113.5846°
Arg. of periapsis
123.1809°
True anomaly
236.91829°
Mean anomaly
236.9282°
Eccentric anomaly
236.92325°
Mean motion
3.77193 °/min
Orbital period
95.44 mins
BSTAR
0.000091216
Loading maneuver chart data...
Computing Atmospheric mass density...
Loading historical data...
Loading historical data...
Loading historical data...
Loading historical data...
Loading historical data...
Loading historical data...
Loading historical data...

Documentation

Showing up to 5 results
|